Location: Azul
(36.7830°S, 59.8500°W)
Time: 04:34:46
(UTC-03:00)

ISS - Pass Details

Date: 16 October 2019
Orbit: 411 x 421 km, 51.6° (Epoch: 15 October)

Event Time Altitude Azimuth Distance (km) Brightness Sun altitude
Exits shadow 04:36:10 19° 216° (SW) 1,106 -1.7 -19.3°
Maximum altitude 04:38:28 54° 142° (SE) 525 -3.0 -18.9°
Drops below altitude 10° 04:41:49 10° 63° (ENE) 1,515 -0.5 -18.3°
Sets 04:43:56 0° 58° (ENE) 2,374 0.5 -17.9°
